Regional Weather Roundup
Issued by NWS Spokane, WA

Home | Current Version | Previous Version | Text Only | Print | Product List | Glossary On
Versions: 1 2 3 4 5 6 7 8 9 10 11 12 13 14 15 16 17 18 19 20 21 22 23 24 25 26 27 28 29 30 31 32 33 34 35 36 37 38 39 40 41 42 43 44 45 46 47 48 49 50
000
NZUS01 KOTX 050410
RWROTX
EASTERN WASHINGTON/NORTHERN IDAHO ROUNDUP
NATIONAL WEATHER SERVICE, SPOKANE WA
900 PM PDT SAT JUL 04 2015

Note: "fair" indicated few or no clouds below 12,000 feet with no
significant weather and/or obstructions to visibility.

...NORTHEAST WASHINGTON AND NORTHERN IDAHO PANHANDLE...

CITY           SKY/WX    TMP DP  RH WIND       PRES   REMARKS
SPOKANE INTL   PTCLDY    90  38  16 NW9       29.71R
SPOKANE DOWNTO CLEAR     91  46  21 NW8       29.68R
COEUR D ALENE  CLEAR     88  48  25 SE5       29.69R
DEER PARK      CLEAR     80  44  27 MISG      29.71R
SANDPOINT      MOCLDY    88  36  15 N8        29.70R
BONNERS FERRY  FAIR      82  41  23 N9        29.72R

...SOUTHEAST WASHINGTON AND SOUTHERN IDAHO PANHANDLE...

CITY           SKY/WX    TMP DP  RH WIND       PRES   REMARKS
WALLA WALLA    PTCLDY    92  43  18 SE7       29.66R
PULLMAN/MOSCOW PTCLDY    80  46  30 CALM      29.77R
LEWISTON       MOCLDY    93  41  16 NW10      29.66R
LOWELL           N/A     76  58  53 CALM      29.70R

...COLUMBIA BASIN...

CITY           SKY/WX    TMP DP  RH WIND       PRES   REMARKS
EPHRATA        CLEAR     94  40  15 N15       29.63R HX  90
MOSES LAKE     CLEAR     94  49  21 SW10      29.63R HX  90
TRI CITIES     PTCLDY    97  49  19 S6        29.59S HX  94
HERMISTON      PTCLDY    92  51  24 SW6       29.62R
PENDLETON      PTCLDY    89  41  18 CALM      29.69R

...EAST SLOPES CASCADES...

CITY           SKY/WX    TMP DP  RH WIND       PRES   REMARKS
THE DALLES     MOCLDY    92  46  20 W13       29.65R
YAKIMA         PTCLDY    92  37  14 CALM      29.67R
ELLENSBURG     PTCLDY    83  34  17 NW17      29.73R
WENATCHEE      CLEAR     93  34  12 W12       29.67R
OMAK           PTCLDY    86  33  15 N17G35    29.74R

...SOUTHERN BRITISH COLUMBIA...

CITY           SKY/WX    TMP DP  RH WIND       PRES   REMARKS
PENTICTON      PTCLDY    81  41  24 N7        29.82R
CASTLEGAR      MOCLDY    82  39  21 CALM      29.76R
CRANBROOK      MOCLDY    81  27  13 N10G21    29.79R

...WESTERN MONTANA...

CITY           SKY/WX    TMP DP  RH WIND       PRES   REMARKS
MISSOULA       MOCLDY    81  36  19 W8        29.78R

...NEIGHBORING CITIES...

CITY           SKY/WX    TMP DP  RH WIND       PRES   REMARKS
SEATTLE        PTCLDY    84  43  23 NE8       29.78F
CALGARY        CLOUDY    55  46  71 NW15G22   30.13R



USA.gov is the U.S. government's official web portal to all federal, state and local government web resources and services.